EW0050 Weather Reports


time (UTC)temp
F
wind
direction
speed
knots
gust
knots
rain 1hr
in
rain 24hr
in
rain mn
in
humidity
%
barometer
mb
20260507102912 65 254 3.5 8.7 0.00 0.00 0.00 67 1013.0
20260507095955 65 261 6.1 7.8 0.00 0.00 0.00 67 1013.2
20260507092925 64 270 5.2 8.7 0.00 0.00 0.00 68 1013.3
20260507085913 64 229 5.2 9.6 0.00 0.00 0.00 69 1013.1
20260507082927 63 246 5.2 7.8 0.00 0.00 0.00 70 1012.9
20260507075943 62 232 4.3 7.0 0.00 0.00 0.00 71 1012.8
20260507072937 61 216 4.3 6.1 0.00 0.00 0.00 80 1013.0
20260507065924 60 220 1.7 5.2 0.00 0.00 0.00 87 1012.8
20260507062939 59 256 0.9 3.5 0.00 0.00 0.00 89 1012.5
20260507055930 58 291 0.0 0.0 0.00 0.00 0.00 90 1012.6
20260507052925 55 291 0.0 0.0 0.00 0.00 0.00 89 1012.4
20260507045933 53 291 0.0 0.0 0.00 0.00 0.00 88 1012.1
20260507042931 54 291 0.0 0.0 0.00 0.04 0.00 87 1011.9
20260507035924 55 291 0.0 0.0 0.00 0.04 0.00 87 1011.9
20260507032920 56 291 0.0 0.0 0.00 0.04 0.00 86 1011.8
20260507025925 57 291 0.0 0.0 0.00 0.04 0.00 85 1011.9
20260507022915 58 291 0.0 0.0 0.00 0.04 0.01 85 1011.9
20260507015926 59 291 1.7 2.6 0.00 0.04 0.01 84 1011.9
20260507012924 59 294 0.9 2.6 0.00 0.04 0.01 84 1012.0
20260507005917 60 325 2.6 4.3 0.00 0.04 0.01 84 1012.1
20260507002926 60 231 3.5 7.0 0.00 1.65 0.01 83 1012.3
20260506235913 61 231 6.1 11.3 0.00 1.65 0.01 83 1012.5
20260506232928 61 255 6.1 12.2 0.00 1.69 0.01 82 1012.7
20260506225939 61 235 5.2 14.8 0.00 1.69 0.01 82 1012.9
20260506222929 61 287 7.0 13.0 0.00 1.69 0.01 81 1012.9
20260506215918 60 241 6.1 11.3 0.00 1.69 0.01 80 1012.8
20260506212913 59 322 2.6 4.3 0.00 1.69 0.01 78 1012.7
20260506205925 59 303 1.7 3.5 0.00 1.69 0.01 77 1012.7
20260506202912 59 308 1.7 3.5 0.00 1.69 0.01 76 1012.4
20260506195925 61 300 0.9 2.6 0.00 1.69 0.01 74 1012.1
20260506192936 61 255 2.6 7.0 0.00 1.69 0.01 74 1011.6
20260506185921 61 278 4.3 10.4 0.00 1.69 0.01 73 1011.1
20260506182916 62 248 6.1 9.6 0.00 1.69 0.01 72 1010.8
20260506175931 63 266 5.2 8.7 0.00 1.69 0.01 70 1010.6
20260506172920 63 216 5.2 8.7 0.00 1.69 0.01 71 1010.2
20260506165934 63 263 5.2 10.4 0.00 1.69 0.01 69 1010.2
20260506162921 64 253 7.0 13.0 0.00 1.69 0.01 70 1010.2
20260506155914 64 216 7.0 10.4 0.00 1.69 0.01 68 1010.4
20260506152950 64 232 5.2 11.3 0.00 1.69 0.01 69 1010.3
20260506145942 64 254 6.1 11.3 0.00 1.69 0.01 67 1010.3
20260506142928 65 227 7.8 13.9 0.00 1.69 0.01 67 1010.6
20260506135928 65 244 7.8 12.2 0.00 1.69 0.01 67 1010.6
20260506132914 65 231 7.0 12.2 0.00 1.69 0.01 68 1010.9
20260506125929 65 241 7.0 11.3 0.00 1.69 0.01 69 1010.9
20260506122923 64 244 7.8 13.9 0.00 1.69 0.01 70 1010.9
20260506115928 64 268 8.7 18.2 0.00 1.69 0.01 70 1010.8
20260506112923 64 227 6.1 14.8 0.00 1.69 0.01 70 1010.8
20260506105912 63 231 7.8 13.9 0.00 1.69 0.01 69 1010.9